Location: Lugrin
(46.4033°N, 6.6674°E)
Time: 11:24:17
(UTC+00:00)

Cosmos 923 Rocket - Pass Details

Date: 18 September 2020
Orbit: 759 x 784 km, 74.0° (Epoch: 24 October)

Event Time Altitude Azimuth Distance (km) Brightness Sun altitude
Rises 17:57:24 0° 336° (NNW) 3,245 7.7 -4.1°
Reaches altitude 10° 17:59:48 10° 334° (NNW) 2,311 7.0 -4.5°
Maximum altitude 18:05:00 69° 252° (WSW) 817 4.4 -5.4°
Drops below altitude 10° 18:10:08 10° 170° (S) 2,284 6.3 -6.3°
Sets 18:12:30 0° 168° (SSE) 3,204 7.0 -6.7°
